• In Belarus
  • List of Countries
  • For 7 days
  • Water Temperature
  • Weather Map
  • Weather Widgets
  • user-avatar
    Login

    Hourly Weather Nizhnee Inho

    Today, 18 February, Tuesday

    Time Temperature Precipitation Wind Pressure Humidity
    00:00 -1°C° 0 mm 2 mps 719 mmHg 72%
    01:00 -1°C° 0 mm 2 mps 718 mmHg 69%
    02:00 -1°C° 0 mm 2 mps 718 mmHg 66%
    03:00 -1°C° 0 mm 2 mps 718 mmHg 61%
    04:00 +1°C° 0 mm 2 mps 718 mmHg 60%
    05:00 +1°C° 0 mm 2 mps 718 mmHg 58%
    06:00 +1°C° 0 mm 2 mps 718 mmHg 57%
    07:00 +2°C° 0 mm 2 mps 718 mmHg 59%
    08:00 +5°C° 0 mm 1 mps 718 mmHg 61%
    09:00 +7°C° 0 mm 1 mps 718 mmHg 65%
    10:00 +8°C° 0 mm 1 mps 717 mmHg 71%
    11:00 +9°C° 0 mm 1 mps 717 mmHg 77%
    12:00 +10°C° 0 mm 1 mps 717 mmHg 84%
    13:00 +10°C° 0 mm 1 mps 716 mmHg 83%
    14:00 +10°C° 0 mm 1 mps 716 mmHg 83%
    15:00 +11°C° 0 mm 1 mps 715 mmHg 83%
    16:00 +10°C° 0 mm 1 mps 715 mmHg 78%
    17:00 +9°C° 0 mm 1 mps 715 mmHg 73%
    18:00 +7°C° 0 mm 1 mps 715 mmHg 68%
    19:00 +6°C° 0 mm 2 mps 714 mmHg 66%
    20:00 +6°C° 0 mm 2 mps 714 mmHg 64%
    21:00 +6°C° 0 mm 2 mps 714 mmHg 62%
    22:00 +6°C° 0 mm 2 mps 714 mmHg 59%
    23:00 +6°C° 0 mm 2 mps 713 mmHg 56%

    Tomorrow, 19 February, Wednesday

    Time Temperature Precipitation Wind Pressure Humidity
    00:00 +5°C° 0 mm 2 mps 713 mmHg 53%
    01:00 +5°C° 0 mm 2 mps 712 mmHg 52%
    02:00 +5°C° 0 mm 2 mps 712 mmHg 51%
    03:00 +5°C° 0 mm 2 mps 712 mmHg 50%
    04:00 +5°C° 0 mm 2 mps 711 mmHg 49%
    05:00 +5°C° 0 mm 2 mps 711 mmHg 48%
    06:00 +5°C° 0 mm 2 mps 711 mmHg 47%
    07:00 +6°C° 0 mm 2 mps 711 mmHg 50%
    08:00 +7°C° 0 mm 2 mps 711 mmHg 53%
    09:00 +8°C° 0 mm 2 mps 711 mmHg 56%
    10:00 +10°C° 0 mm 1 mps 711 mmHg 61%
    11:00 +11°C° 0 mm 1 mps 711 mmHg 67%
    12:00 +12°C° 0 mm 1 mps 710 mmHg 72%
    13:00 +12°C° 0 mm 1 mps 710 mmHg 72%
    14:00 +12°C° 0 mm 1 mps 710 mmHg 73%
    15:00 +11°C° 0 mm 1 mps 710 mmHg 73%
    16:00 +10°C° 0 mm 1 mps 710 mmHg 70%
    17:00 +8°C° 0 mm 1 mps 709 mmHg 67%
    18:00 +6°C° 0 mm 0 mps 709 mmHg 65%
    19:00 +7°C° 0 mm 1 mps 709 mmHg 62%
    20:00 +6°C° 0 mm 1 mps 709 mmHg 60%
    21:00 +6°C° 0 mm 1 mps 710 mmHg 57%
    22:00 +6°C° 0 mm 1 mps 709 mmHg 57%
    23:00 +6°C° 0 mm 1 mps 709 mmHg 57%

    Day after tomorrow, 20 February, Thursday

    Time Temperature Precipitation Wind Pressure Humidity
    00:00 +6°C° 0 mm 1 mps 709 mmHg 56%
    01:00 +6°C° 0 mm 1 mps 709 mmHg 57%
    02:00 +6°C° 0 mm 1 mps 708 mmHg 57%
    03:00 +5°C° 0 mm 1 mps 708 mmHg 58%
    04:00 +5°C° 0 mm 1 mps 708 mmHg 58%
    05:00 +4°C° 0 mm 0 mps 708 mmHg 58%
    06:00 +4°C° 0 mm 0 mps 708 mmHg 58%
    07:00 +5°C° 0 mm 0 mps 708 mmHg 59%
    08:00 +6°C° 0 mm 0 mps 709 mmHg 59%
    09:00 +7°C° 0 mm 0 mps 709 mmHg 60%
    10:00 +7°C° 0 mm 0 mps 709 mmHg 61%
    11:00 +9°C° 0 mm 1 mps 709 mmHg 62%
    12:00 +10°C° 0 mm 1 mps 709 mmHg 62%
    13:00 +10°C° 0 mm 1 mps 708 mmHg 65%
    14:00 +9°C° 0 mm 1 mps 708 mmHg 68%
    15:00 +9°C° 0 mm 1 mps 708 mmHg 71%
    16:00 +8°C° 0 mm 1 mps 708 mmHg 76%
    17:00 +6°C° 0 mm 0 mps 708 mmHg 80%
    18:00 +5°C° 0 mm 0 mps 708 mmHg 85%
    19:00 +5°C° 0 mm 0 mps 708 mmHg 85%
    20:00 +5°C° 0 mm 0 mps 709 mmHg 85%
    21:00 +5°C° 0 mm 0 mps 709 mmHg 85%
    22:00 +4°C° 0 mm 0 mps 709 mmHg 83%
    23:00 +4°C° 0 mm 0 mps 709 mmHg 81%

    21 February, Friday

    Time Temperature Precipitation Wind Pressure Humidity
    00:00 +4°C° 0 mm 0 mps 709 mmHg 79%
    01:00 +4°C° 0 mm 0 mps 709 mmHg 77%
    02:00 +4°C° 0 mm 0 mps 708 mmHg 76%
    03:00 +4°C° 0 mm 0 mps 708 mmHg 74%
    04:00 +4°C° 0 mm 0 mps 708 mmHg 74%
    05:00 +3°C° 0 mm 0 mps 709 mmHg 74%
    06:00 +3°C° 0 mm 0 mps 709 mmHg 73%
    07:00 +4°C° 0 mm 0 mps 709 mmHg 72%
    08:00 +5°C° 0 mm 0 mps 709 mmHg 70%
    09:00 +6°C° 0 mm 0 mps 710 mmHg 69%
    16:00 +8°C° 0 mm 1 mps 709 mmHg 79%
    17:00 +6°C° 0 mm 1 mps 710 mmHg 83%
    18:00 +4°C° 0 mm 0 mps 710 mmHg 88%
    19:00 +4°C° 0 mm 0 mps 710 mmHg 87%
    20:00 +4°C° 0 mm 0 mps 710 mmHg 86%
    21:00 +4°C° 0 mm 0 mps 711 mmHg 85%
    22:00 +3°C° 0 mm 0 mps 711 mmHg 84%
    23:00 +4°C° 0 mm 1 mps 711 mmHg 82%

    22 February, Saturday

    Time Temperature Precipitation Wind Pressure Humidity
    00:00 +4°C° 0 mm 1 mps 711 mmHg 81%
    01:00 +4°C° 0 mm 1 mps 711 mmHg 80%
    02:00 +4°C° 0 mm 1 mps 711 mmHg 79%
    03:00 +4°C° 0 mm 1 mps 711 mmHg 78%
    04:00 +4°C° 0 mm 1 mps 711 mmHg 77%
    05:00 +4°C° 0 mm 1 mps 711 mmHg 76%
    06:00 +4°C° 0 mm 1 mps 711 mmHg 75%
    07:00 +5°C° 0 mm 1 mps 712 mmHg 73%
    08:00 +6°C° 0 mm 1 mps 712 mmHg 70%
    09:00 +7°C° 0 mm 0 mps 712 mmHg 67%
    10:00 +7°C° 0 mm 0 mps 712 mmHg 67%
    11:00 +8°C° 0 mm 0 mps 712 mmHg 67%
    12:00 +10°C° 0 mm 1 mps 712 mmHg 66%
    13:00 +10°C° 0 mm 1 mps 712 mmHg 69%
    14:00 +10°C° 0 mm 1 mps 712 mmHg 71%
    15:00 +10°C° 0 mm 1 mps 712 mmHg 73%
    16:00 +8°C° 0 mm 1 mps 712 mmHg 77%
    17:00 +6°C° 0 mm 0 mps 712 mmHg 81%
    18:00 +5°C° 0 mm 0 mps 712 mmHg 85%
    19:00 +5°C° 0 mm 0 mps 712 mmHg 84%
    20:00 +5°C° 0 mm 0 mps 712 mmHg 82%
    21:00 +5°C° 0 mm 0 mps 713 mmHg 81%
    22:00 +5°C° 0 mm 0 mps 713 mmHg 81%
    23:00 +5°C° 0 mm 0 mps 713 mmHg 80%

    23 February, Sunday

    Time Temperature Precipitation Wind Pressure Humidity
    00:00 +4°C° 0 mm 0 mps 713 mmHg 79%
    01:00 +4°C° 0 mm 0 mps 712 mmHg 78%
    02:00 +5°C° 0 mm 1 mps 712 mmHg 78%
    03:00 +5°C° 0 mm 1 mps 712 mmHg 77%
    04:00 +5°C° 0 mm 1 mps 712 mmHg 76%
    05:00 +5°C° 0 mm 1 mps 712 mmHg 76%
    06:00 +5°C° 0 mm 1 mps 712 mmHg 75%
    07:00 +5°C° 0 mm 0 mps 713 mmHg 72%
    08:00 +6°C° 0 mm 0 mps 713 mmHg 70%
    09:00 +7°C° 0 mm 0 mps 713 mmHg 67%
    10:00 +7°C° 0 mm 0 mps 713 mmHg 67%
    11:00 +9°C° 0 mm 1 mps 713 mmHg 67%
    12:00 +10°C° 0 mm 1 mps 712 mmHg 67%
    13:00 +10°C° 0 mm 1 mps 712 mmHg 69%
    14:00 +10°C° 0 mm 1 mps 711 mmHg 70%
    15:00 +10°C° 0 mm 1 mps 711 mmHg 72%
    16:00 +9°C° 0 mm 1 mps 711 mmHg 78%
    17:00 +8°C° 0 mm 1 mps 711 mmHg 83%
    18:00 +6°C° 0 mm 0 mps 711 mmHg 89%
    19:00 +5°C° 0 mm 0 mps 710 mmHg 88%
    20:00 +5°C° 0 mm 0 mps 710 mmHg 87%
    21:00 +5°C° 0 mm 0 mps 710 mmHg 86%
    22:00 +6°C° 0 mm 1 mps 710 mmHg 85%
    23:00 +5°C° 0 mm 1 mps 709 mmHg 84%
    Show more